Location: Capelle
(50.3413°N, 1.9974°E)
Time: 05:14:02
(UTC+00:00)

Cosmos 1452 Rocket - Visible Passes

Search period start: 19 April 2026 00:00
Search period end: 29 April 2026 00:00
Orbit: 764 x 769 km, 74.1° (Epoch: 18 April)

Date Brightness Start Highest point End Pass type
(mag) Time Alt. Az. Time Alt. Az. Time Alt. Az.
19 Apr 3.5 01:09:53 70° WNW 01:10:01 71° WNW 01:15:17 10° NNE visible
19 Apr 5.6 02:50:05 11° WNW 02:53:04 16° NW 02:56:17 10° N visible
19 Apr 5.9 22:52:38 11° ENE 22:52:38 11° ENE 22:53:11 10° ENE visible
20 Apr 3.6 00:32:51 71° ENE 00:32:51 71° ENE 00:37:43 10° NNE visible
20 Apr 5.2 02:13:04 18° W 02:15:06 22° NW 02:19:12 10° N visible
20 Apr 4.2 23:55:48 43° E 23:55:48 43° E 00:00:03 10° NE visible
21 Apr 4.6 01:36:00 29° W 01:37:15 32° NW 01:41:58 10° N visible
21 Apr 4.9 23:18:43 27° E 23:18:43 27° E 23:22:11 10° NE visible
22 Apr 4.0 00:58:56 46° W 00:59:31 48° WNW 01:04:36 10° NNE visible
22 Apr 5.9 02:40:55 10° WNW 02:42:56 12° NW 02:44:57 10° NNW visible
22 Apr 5.4 22:41:37 17° E 22:41:37 17° E 22:43:58 10° NE visible
23 Apr 3.5 00:21:50 75° WNW 00:21:53 75° WNW 00:27:08 10° NNE visible
23 Apr 5.6 02:02:02 12° WNW 02:04:52 17° NW 02:08:13 10° N visible
23 Apr 5.8 22:04:29 10° ENE 22:04:29 10° ENE 22:04:37 10° ENE visible
23 Apr 3.5 23:44:42 68° E 23:44:42 68° E 23:49:35 10° NNE visible
24 Apr 5.2 01:24:54 19° W 01:26:55 23° NW 01:31:06 10° N visible
24 Apr 4.1 23:07:32 42° E 23:07:32 42° E 23:11:52 10° NE visible
25 Apr 4.7 00:47:44 29° W 00:49:05 34° NW 00:53:51 10° N visible
25 Apr 4.8 22:30:20 26° E 22:30:20 26° E 22:33:59 10° NE visible
26 Apr 4.0 00:10:32 46° W 00:11:21 51° WNW 00:16:28 10° NNE visible
26 Apr 5.9 01:52:29 10° WNW 01:54:43 13° NW 01:56:56 10° NNW visible
26 Apr 5.3 21:53:07 17° E 21:53:07 17° E 21:55:41 10° NE visible
26 Apr 3.4 23:33:18 73° WSW 23:33:44 79° WNW 23:39:00 10° NNE visible
27 Apr 5.7 01:13:30 11° W 01:16:40 17° NW 01:20:08 10° N visible
27 Apr 3.4 22:56:02 66° ESE 22:56:13 66° ESE 23:01:25 10° NNE visible
28 Apr 5.3 00:36:14 18° W 00:38:44 24° NW 00:43:00 10° N visible
28 Apr 4.0 22:18:43 41° ESE 22:18:48 41° ESE 22:23:41 10° NE visible
